TimeCST,TemperatureF,Dew PointF,Humidity,Sea Level PressureIn,VisibilityMPH,Wind Direction,Wind SpeedMPH,Gust SpeedMPH,PrecipitationIn,Events,Conditions,WindDirDegrees,DateUTC
12:53 AM,36.0,34.0,93,29.44,7.0,North,9.2,-,0.02,Rain,Light Rain,360,2013-01-30 06:53:00
1:53 AM,35.1,34.0,96,29.49,7.0,WNW,5.8,-,0.02,Rain,Light Rain,300,2013-01-30 07:53:00
2:53 AM,35.1,34.0,96,29.39,6.0,NE,12.7,-,0.02,Rain,Light Rain,40,2013-01-30 08:53:00
3:22 AM,35.6,33.8,93,29.38,7.0,North,12.7,-,0.01,,Overcast,10,2013-01-30 09:22:00
3:53 AM,35.1,33.1,92,29.39,8.0,North,10.4,-,0.02,,Overcast,10,2013-01-30 09:53:00
4:53 AM,35.1,33.1,92,29.34,6.0,ENE,9.2,-,0.02,,Overcast,60,2013-01-30 10:53:00
5:53 AM,34.0,34.0,100,29.32,2.0,NE,5.8,-,0.02,Rain,Rain,40,2013-01-30 11:53:00
6:07 AM,33.8,33.8,100,29.32,3.0,North,3.5,-,0.00,Rain,Light Rain,10,2013-01-30 12:07:00
6:19 AM,33.8,33.8,100,29.37,2.5,West,17.3,21.9,0.01,Rain,Rain,260,2013-01-30 12:19:00
6:32 AM,33.8,33.8,100,29.38,3.0,West,11.5,-,0.01,Snow,Light Snow,280,2013-01-30 12:32:00
6:42 AM,33.8,32.0,93,29.36,2.0,WNW,9.2,-,0.02,Snow,Light Snow,300,2013-01-30 12:42:00
6:53 AM,33.1,32.0,96,29.41,2.0,WNW,9.2,-,0.02,Snow,Light Snow,290,2013-01-30 12:53:00
7:15 AM,33.8,32.0,93,29.38,3.0,WNW,12.7,-,0.01,Snow,Light Snow,300,2013-01-30 13:15:00
7:28 AM,33.8,32.0,93,29.38,2.5,NW,12.7,23.0,0.02,Snow,Light Snow,310,2013-01-30 13:28:00
7:35 AM,33.8,32.0,93,29.38,2.0,NW,12.7,24.2,0.02,Snow,Light Snow,320,2013-01-30 13:35:00
7:53 AM,33.1,32.0,96,29.38,3.0,NNW,13.8,23.0,0.03,Snow,Light Snow,330,2013-01-30 13:53:00
8:53 AM,32.0,30.0,92,29.37,5.0,NNW,12.7,27.6,0.04,,Overcast,330,2013-01-30 14:53:00
9:29 AM,30.2,28.4,93,29.41,10.0,NNW,16.1,26.5,0.02,,Overcast,330,2013-01-30 15:29:00
9:53 AM,30.9,27.0,85,29.43,10.0,NNW,16.1,26.5,0.03,,Overcast,340,2013-01-30 15:53:00
10:53 AM,30.0,26.1,85,29.47,9.0,NW,17.3,24.2,0.03,,Overcast,310,2013-01-30 16:53:00
11:42 AM,28.4,24.8,86,29.46,2.5,NW,19.6,27.6,0.02,Snow,Light Snow,310,2013-01-30 17:42:00
11:53 AM,28.0,25.0,88,29.49,2.0,WNW,16.1,27.6,0.02,Snow,Light Snow,300,2013-01-30 17:53:00
12:01 PM,28.4,24.8,86,29.47,1.0,NW,20.7,27.6,0.00,Snow,Light Snow,310,2013-01-30 18:01:00
12:11 PM,28.4,24.8,86,29.48,0.8,WNW,16.1,29.9,0.01,Snow,Light Snow,300,2013-01-30 18:11:00
12:20 PM,26.6,24.8,93,29.48,0.8,NW,17.3,31.1,0.01,Snow,Light Snow,320,2013-01-30 18:20:00
12:53 PM,26.1,23.0,88,29.51,0.8,NW,20.7,32.2,0.01,Snow,Light Snow,310,2013-01-30 18:53:00
1:07 PM,26.6,23.0,86,29.50,0.5,NW,17.3,29.9,0.00,Fog-Snow,Snow,320,2013-01-30 19:07:00
1:39 PM,26.6,23.0,86,29.51,0.2,NW,20.7,36.8,0.00,Fog-Snow,Snow,320,2013-01-30 19:39:00
1:53 PM,25.0,21.9,88,29.55,0.5,WNW,23.0,34.5,0.00,Fog-Snow,Light Snow,300,2013-01-30 19:53:00
2:06 PM,24.8,21.2,86,29.53,0.8,NW,23.0,38.0,0.00,Snow,Light Snow,310,2013-01-30 20:06:00
2:20 PM,24.8,19.4,80,29.53,1.2,NW,23.0,39.1,0.00,Snow,Light Snow,310,2013-01-30 20:20:00
2:24 PM,24.8,19.4,80,29.53,2.0,NW,18.4,39.1,0.00,Snow,Light Snow,310,2013-01-30 20:24:00
2:38 PM,24.8,19.4,80,29.55,1.0,WNW,20.7,33.4,0.00,Snow,Light Snow,300,2013-01-30 20:38:00
2:49 PM,24.8,19.4,80,29.55,1.0,WNW,17.3,33.4,0.00,Snow,Light Snow,300,2013-01-30 20:49:00
2:53 PM,24.1,19.0,81,29.58,1.0,NW,20.7,34.5,0.00,Snow,Light Snow,310,2013-01-30 20:53:00
3:15 PM,23.0,19.4,86,29.57,3.0,NW,18.4,29.9,0.00,Snow,Light Snow,310,2013-01-30 21:15:00
3:22 PM,23.0,17.6,80,29.58,4.0,NW,20.7,34.5,0.00,Snow,Light Snow,320,2013-01-30 21:22:00
3:53 PM,23.0,18.0,81,29.62,10.0,NW,15.0,29.9,0.00,,Overcast,310,2013-01-30 21:53:00
4:18 PM,21.2,17.6,86,29.62,2.5,NW,15.0,27.6,0.00,Snow,Light Snow,310,2013-01-30 22:18:00
4:28 PM,21.2,17.6,86,29.62,5.0,NW,20.7,31.1,0.00,,Haze,310,2013-01-30 22:28:00
4:53 PM,21.0,15.1,78,29.66,10.0,NW,17.3,31.1,0.00,,Mostly Cloudy,310,2013-01-30 22:53:00
5:32 PM,21.2,14.0,74,29.67,10.0,NW,15.0,31.1,N/A,,Scattered Clouds,310,2013-01-30 23:32:00
5:44 PM,21.2,15.8,80,29.67,10.0,WNW,17.3,24.2,N/A,,Mostly Cloudy,300,2013-01-30 23:44:00
5:53 PM,21.0,15.1,78,29.70,10.0,WNW,17.3,26.5,N/A,,Mostly Cloudy,300,2013-01-30 23:53:00
6:18 PM,21.2,15.8,80,29.70,10.0,WNW,16.1,21.9,N/A,,Overcast,300,2013-01-31 00:18:00
6:32 PM,21.2,15.8,80,29.70,10.0,WNW,17.3,25.3,N/A,,Overcast,290,2013-01-31 00:32:00
6:53 PM,21.0,15.1,78,29.74,10.0,WNW,13.8,28.8,N/A,,Overcast,300,2013-01-31 00:53:00
7:33 PM,21.2,14.0,74,29.73,10.0,WNW,18.4,25.3,N/A,,Overcast,300,2013-01-31 01:33:00
7:53 PM,21.0,14.0,74,29.77,10.0,NW,15.0,28.8,N/A,,Overcast,310,2013-01-31 01:53:00
8:19 PM,19.4,12.2,74,29.76,9.0,WNW,16.1,27.6,0.00,Snow,Light Snow,300,2013-01-31 02:19:00
8:53 PM,19.9,14.0,78,29.80,5.0,WNW,15.0,23.0,0.00,Snow,Light Snow,290,2013-01-31 02:53:00
9:45 PM,17.6,10.4,73,29.79,10.0,WNW,12.7,23.0,0.00,,Scattered Clouds,300,2013-01-31 03:45:00
9:53 PM,18.0,10.0,71,29.82,10.0,WNW,10.4,-,0.00,,Partly Cloudy,300,2013-01-31 03:53:00
10:53 PM,18.0,10.0,71,29.84,10.0,West,9.2,19.6,N/A,,Clear,280,2013-01-31 04:53:00
11:53 PM,19.0,12.0,74,29.85,10.0,West,9.2,-,N/A,,Overcast,270,2013-01-31 05:53:00